Location: Bailleul
(49.3853°N, 2.2228°E)
Time: 23:35:45
(UTC+00:00)

Daily predictions for brighter satellites

Satellite Brightness Start Highest point End
(mag) Time Altitude Azimuth Time Altitude Azimuth Time Altitude Azimuth
Cosmos 2333 Rocket 2.8 17:47:12 10° SW 17:52:48 61° WNW 17:58:27 10° NNE
Okean 3 3.5 17:52:02 10° N 17:56:11 83° W 18:00:20 10° S
COSMOS 2428 2.8 17:51:50 10° S 17:57:23 59° ESE 18:02:58 10° NE
Cosmos 1340 Rocket 3.0 17:53:19 10° NNW 17:57:23 80° W 18:01:23 10° S
SJ-6B 4.4 17:57:09 10° ESE 17:59:50 18° ENE 18:02:30 10° NNE
Okean 1-7 3.0 17:55:53 10° N 18:00:15 87° ENE 18:04:36 10° S
Okean O Rocket 3.1 18:03:00 10° ESE 18:06:03 18° ENE 18:09:06 10° NNE
Helios 1A 4.2 18:03:11 10° N 18:07:06 45° WNW 18:11:01 10° SW
Cosmos 2219 Rocket 2.6 18:01:45 10° SW 18:07:19 70° WNW 18:12:57 10° NNE
Cosmos 1470 Rocket 3.9 18:04:04 10° SSW 18:08:26 72° WNW 18:12:53 10° N
Meteor PRIRODA 3.7 18:04:56 10° S 18:08:28 80° WSW 18:12:03 10° NNW
Tiangong 0.0 18:07:12 10° SSW 18:09:11 16° SSE 18:11:10 10° SE
USA 305 4.1 18:11:50 10° W 18:13:23 16° SW 18:14:56 10° S
Cosmos 405 4.2 18:12:52 10° NE 18:14:02 12° ENE 18:14:18 12° ENE
NOSS 2-3 (C) 4.3 18:13:12 10° WSW 18:16:56 49° NW 18:21:19 10° NE
CZ-4B R/B 2.4 18:15:07 10° SSE 18:18:36 85° ENE 18:22:09 10° NNW
NOSS 2-2 (E) 3.4 18:15:50 10° SW 18:19:00 56° NW 18:22:19 10° NE
NOSS 2-3 (D) 4.3 18:18:32 10° WSW 18:22:14 47° NW 18:26:35 10° NE
GEOS 3 Rocket 3.7 18:19:38 10° NE 18:25:03 86° NW 18:30:21 10° SW
NOSS 3-1 (A) 3.4 18:23:11 10° S 18:27:56 44° ESE 18:33:32 10° NE
SME Rocket 4.2 18:23:20 10° SE 18:29:15 38° ENE 18:33:31 10° N
Cosmos 1733 Rocket 4.1 18:27:30 10° SE 18:30:58 24° E 18:34:27 10° NE
Cosmos 1975 4.2 18:27:51 10° SSW 18:31:32 42° WNW 18:35:16 10° N
IGS 5A 3.3 18:29:33 10° SSE 18:33:39 79° ENE 18:37:46 10° N
Resurs 01 Rocket 3.2 18:32:25 15° E 18:33:45 17° ENE 18:36:39 10° NNE
USA 186 3.3 18:35:27 18° ENE 18:35:27 18° ENE 18:37:35 10° NNE
Landsat 4 4.1 18:33:10 11° SE 18:36:19 39° ENE 18:39:44 10° N
ADEOS 4.5 18:31:15 10° S 18:36:20 53° W 18:41:28 10° NNW
CZ-4B DEB 4.2 18:31:58 10° SSE 18:37:25 90° ENE 18:42:54 10° NNW
SKYMED 2 4.5 18:33:35 10° N 18:37:49 53° WNW 18:42:03 10° SSW
Cosmos 1269 Rocket 4.0 18:34:23 10° SSW 18:39:38 71° ESE 18:44:55 10° NNE
NOSS 2-2 (D) 3.7 18:37:35 10° WSW 18:40:42 48° NW 18:43:57 10° NE
Cosmos 1980 3.7 18:35:54 10° S 18:41:23 56° ESE 18:46:54 10° NE
Cosmos 1932 4.5 18:37:29 10° NW 18:43:57 89° NE 18:50:15 10° SE
NOSS 2-2 (C) 3.9 18:41:57 10° WSW 18:45:03 44° NW 18:48:17 10° NNE
Cosmos 2242 Rocket 3.6 18:41:29 10° N 18:46:01 86° W 18:50:34 10° S
Cosmos 1933 Rocket 4.4 18:42:37 10° SSW 18:46:53 53° WNW 18:51:10 10° N
Cosmos 1766 3.0 18:43:45 10° S 18:47:31 86° E 18:51:19 10° N
Okean-O 4.0 18:46:45 19° ENE 18:47:33 20° ENE 18:50:48 10° NNE
CZ-4B R/B 3.1 18:42:51 10° SSE 18:48:04 63° ENE 18:53:22 10° N
Cosmos 1867 3.7 18:43:19 10° SSW 18:48:34 53° ESE 18:53:53 10° NE
Cosmos 614 Rocket 4.0 18:43:39 10° SSW 18:48:43 85° WNW 18:53:50 10° NNE
Okean 2 4.3 18:46:46 10° NNW 18:50:39 49° W 18:54:32 10° S
Cosmos 1378 Rocket 4.3 18:46:53 10° N 18:50:46 31° ENE 18:52:14 25° ESE
SL-08 R/B 4.4 18:46:04 10° N 18:50:52 51° WNW 18:55:36 10° SW
Cosmos 1140 Rocket 4.2 18:46:42 10° SSE 18:51:07 29° E 18:55:34 10° NE
Cosmos 2278 Rocket 2.6 18:45:48 10° NNW 18:51:26 64° WSW 18:57:01 10° SSE
MOS 1-B 4.3 18:49:28 10° SSE 18:55:11 69° ENE 19:00:58 10° NNW
ISS -0.9 18:54:13 10° WSW 18:55:36 12° SW 18:57:00 10° SSW
Feng Yun 1-1 Rocket 4.3 18:51:59 10° SSE 18:57:38 60° ENE 19:03:12 10° N
CZ-4C R/B 3.4 18:54:26 10° NNE 18:57:38 37° E 18:59:36 20° SSE
PAYLOAD B 4.3 18:52:06 10° SSE 18:57:40 83° WSW 19:03:15 10° NNW
Cosmos 1605 Rocket 4.3 18:52:55 10° N 18:58:40 42° ENE 19:02:32 20° SE
Cosmos 1934 Rocket 4.0 18:53:54 10° N 19:00:14 68° ENE 19:06:25 10° SSE
Cosmos 389 Rocket 3.1 18:58:49 10° N 19:01:01 30° NE 19:01:01 30° NE
USA 267 3.9 18:58:14 17° ENE 19:03:02 47° N 19:09:15 10° WNW
USA 276 4.1 19:01:40 10° SSW 19:02:13 13° S 19:02:13 13° S
NOSS 3-1 (C) 3.6 18:59:27 10° SW 19:04:34 64° NW 19:10:49 10° NE
Cosmos 2251 Rocket 3.9 19:06:26 10° S 19:11:15 37° ESE 19:16:04 10° NE
YAOGAN 1 4.0 19:07:18 10° SSW 19:11:19 38° W 19:15:23 10° NNW
Cosmos 1674 Rocket 3.8 19:07:32 10° N 19:11:50 46° ENE 19:12:54 38° ESE
CZ-4 R/B 1.5 19:12:17 10° S 19:16:05 66° WSW 19:19:53 10° NNW
Cosmos 1656 Rocket 4.3 19:12:22 10° NNW 19:17:23 36° NE 19:18:42 31° E
Terra 4.1 19:19:07 10° NE 19:19:07 10° NE 19:19:10 10° NE
Cosmos 2237 Rocket 2.2 19:13:44 10° SSW 19:19:26 85° WNW 19:25:12 10° NNE
Cosmos 2369 Rocket 2.9 19:14:45 10° NNW 19:19:52 35° NE 19:21:10 31° ENE
SL-4 R/B 3.3 19:16:10 10° SSW 19:18:59 26° SSE 19:18:59 26° SSE
Lacrosse 5 2.2 19:15:44 10° NW 19:20:47 56° NNE 19:22:30 38° E
SL-16 R/B 2.5 19:23:47 10° S 19:29:02 41° ESE 19:34:21 10° NE
Cosmos 1470 2.9 19:25:44 10° SSW 19:29:34 70° W 19:33:27 10° N
Cosmos 1943 Rocket 2.5 19:26:09 10° NNW 19:31:46 65° WSW 19:35:34 21° S
Meteor 1-22 Rocket 3.9 19:28:16 10° S 19:33:32 71° E 19:38:52 10° NNE
SJ-6B 3.5 19:30:49 16° S 19:33:49 53° W 19:37:43 10° NNW
CZ-4C R/B 3.9 19:29:17 10° NW 19:34:50 30° NNE 19:38:12 21° ENE
Cosmos 2221 Rocket 3.5 19:33:08 10° N 19:37:42 87° ENE 19:38:56 48° SSE
ATLAS 3B R/B 3.6 19:32:37 10° WSW 19:39:29 52° NW 19:46:52 10° NE
CENTAUR R/B 3.6 19:32:13 10° NW 19:39:44 48° NNE 19:43:21 33° E
Okean O Rocket 2.0 19:39:33 26° S 19:41:54 64° WSW 19:46:21 10° NNW
ADEOS Rocket 3.4 19:38:43 26° SSE 19:43:29 76° ENE 19:50:35 10° NNW
Cosmos 2297 3.7 19:38:26 10° NNW 19:44:11 69° ENE 19:45:25 53° ESE
Tiangong 0.6 19:42:55 10° SW 19:43:35 13° SW 19:43:35 13° SW
Cosmos 1153 Rocket 4.5 19:42:56 10° N 19:49:04 60° ENE 19:50:18 51° ESE
Meteor 1-12 Rocket 4.3 19:43:29 10° SSW 19:49:20 85° WNW 19:55:20 10° N
IRIDIUM 106 4.2 19:44:49 10° N 19:50:01 62° E 19:50:08 62° E
CSL-04 Debris 4.4 19:48:23 26° S 19:51:31 69° WSW 19:56:56 10° NNW
Cosmos 2173 Rocket 4.4 19:48:07 10° N 19:53:29 40° ENE 19:53:29 40° ENE
MOS 1 4.3 19:53:44 56° E 19:54:07 57° ENE 19:59:39 10° N
Cosmos 407 Rocket 3.3 19:54:26 10° SSW 19:59:41 81° ESE 20:05:01 10° NNE
USA 229 DEB 3.4 19:55:47 10° SW 20:02:00 87° SE 20:08:53 10° NE
USA 229 3.4 19:55:51 10° SW 20:02:06 86° SE 20:08:59 10° NE
Meteor 1-24 Rocket 4.0 19:57:23 10° NNW 20:02:41 61° W 20:04:58 33° SSW
NOSS 3-2 (A) 4.3 19:59:08 10° NW 20:06:00 50° NE 20:07:54 42° ENE
USA 186 4.2 20:08:05 22° WNW 20:08:05 22° WNW 20:09:43 10° NW
Meteor 2-5 Rocket 4.3 20:01:50 10° NNW 20:07:20 54° W 20:10:22 26° SSW
CSL-04 Rocket 4.1 20:05:53 32° SSW 20:08:06 56° W 20:13:23 10° NNW
Cosmos 1733 Rocket 4.4 20:04:26 10° SW 20:08:32 38° WNW 20:12:37 10° N
Resurs 01 Rocket 1.9 20:09:57 67° W 20:09:57 67° W 20:14:11 10° NNW
SPOT 1/Viking Rocket 4.2 20:10:54 33° SSW 20:12:52 50° W 20:17:53 10° NNW
Cosmos 2100 Rocket 4.1 20:08:42 10° N 20:14:22 58° ENE 20:14:22 58° ENE
MetOp-B 4.5 20:16:32 53° NNE 20:16:32 53° NNE 20:20:56 10° N
IRS-1C Rocket 4.0 20:16:30 82° N 20:16:30 82° N 20:21:34 10° NNW
Cosmos 1459 Rocket 4.2 20:10:15 10° N 20:16:05 55° ENE 20:16:05 55° ENE
NOSS 3-1 (A) 4.2 20:13:40 10° WSW 20:18:45 45° NNW 20:24:55 10° NE
Cosmos 468 Rocket 4.3 20:13:33 10° NNW 20:17:55 59° N 20:17:55 59° N
Meteor 2-10 Rocket 4.2 20:20:30 50° NNE 20:20:30 50° NNE 20:24:51 10° NNE
Okean-O 3.4 20:24:16 49° WNW 20:24:16 49° WNW 20:27:59 10° NNW
Cosmos 1763 Rocket 3.7 20:20:27 10° NNW 20:24:57 67° NW 20:24:57 67° NW
Cosmos 540 Rocket 4.0 20:24:10 10° NNW 20:28:04 52° N 20:28:04 52° N
Cosmos 1140 Rocket 4.5 20:27:45 10° SW 20:32:42 45° WNW 20:37:41 10° NNE
Cosmos 1802 Rocket 4.4 20:36:11 10° N 20:41:15 55° NNE 20:41:15 55° NNE
USA 267 3.2 20:45:35 74° NNE 20:45:38 74° NNE 20:52:10 10° WNW
NOSS 3-2 (C) 4.4 20:39:30 10° NW 20:46:22 49° NE 20:46:51 48° NE
Ariane Rocket 4.3 20:52:40 34° N 20:52:40 34° N 20:55:34 10° NNW
Terra 3.8 20:57:51 22° N 20:57:51 22° N 20:59:36 10° N
Gbstr 26 Del rocket 4.4 20:48:54 10° W 20:57:00 75° N 20:57:28 73° NE
Lacrosse 5 3.5 20:58:52 10° WNW 21:01:41 30° W 21:01:41 30° W
Cosmos 2369 Rocket 3.2 20:58:42 10° NW 21:02:58 42° WNW 21:02:58 42° WNW
SL-16 R/B 3.3 21:07:52 10° WSW 21:13:12 40° NW 21:18:33 10° NNE
CZ-4C R/B 3.2 21:17:39 10° NW 21:23:20 58° N 21:23:20 58° N
USA 238 DEB 4.4 21:19:29 10° NW 21:25:30 50° N 21:25:30 50° N
USA 238 4.4 21:19:35 10° NW 21:25:36 50° N 21:25:36 50° N
CENTAUR R/B 3.3 21:22:55 10° NW 21:30:30 69° W 21:30:30 69° W
ATLAS 3B R/B 4.4 23:18:30 10° NW 23:25:06 31° NNE 23:25:25 31° NNE
